Year,Month,Day,Hour,Minute,Value (Times are PST for temperature in C)
2016,04,20,00,00,13.00
2016,04,20,00,01,13.00
2016,04,20,00,02,13.00
2016,04,20,00,03,13.00
2016,04,20,00,04,13.00
2016,04,20,00,05,13.00
2016,04,20,00,06,13.00
2016,04,20,00,07,13.00
2016,04,20,00,08,13.00
2016,04,20,00,09,13.00
2016,04,20,00,10,13.00
2016,04,20,00,11,13.00
2016,04,20,00,12,13.00
2016,04,20,00,13,13.00
2016,04,20,00,14,12.90
2016,04,20,00,15,12.90
2016,04,20,00,16,12.90
2016,04,20,00,17,12.90
2016,04,20,00,18,12.90
2016,04,20,00,19,12.90
2016,04,20,00,20,12.80
2016,04,20,00,21,12.80
2016,04,20,00,22,12.80
2016,04,20,00,23,12.70
2016,04,20,00,24,12.70
2016,04,20,00,25,12.70
2016,04,20,00,26,12.60
2016,04,20,00,27,12.60
2016,04,20,00,28,12.60
2016,04,20,00,29,12.60
2016,04,20,00,30,12.60
2016,04,20,00,31,12.50
2016,04,20,00,32,12.50
2016,04,20,00,33,12.50
2016,04,20,00,34,12.50
2016,04,20,00,35,12.50
2016,04,20,00,36,12.50
2016,04,20,00,37,12.40
2016,04,20,00,38,12.40
2016,04,20,00,39,12.40
2016,04,20,00,40,12.30
2016,04,20,00,41,12.30
2016,04,20,00,42,12.30
2016,04,20,00,43,12.20
2016,04,20,00,44,12.20
2016,04,20,00,45,12.20
2016,04,20,00,46,12.20
2016,04,20,00,47,12.10
2016,04,20,00,48,12.10
2016,04,20,00,49,12.10
2016,04,20,00,50,12.10
2016,04,20,00,51,12.10
2016,04,20,00,52,12.10
2016,04,20,00,53,12.10
2016,04,20,00,54,12.10
2016,04,20,00,55,12.20
2016,04,20,00,56,12.20
2016,04,20,00,57,12.20
2016,04,20,00,58,12.20
2016,04,20,00,59,12.20
2016,04,20,01,00,12.20
2016,04,20,01,01,12.20
2016,04,20,01,02,12.10
2016,04,20,01,03,12.10
2016,04,20,01,04,12.10
2016,04,20,01,05,12.10
2016,04,20,01,06,12.10
2016,04,20,01,07,12.10
2016,04,20,01,08,12.10
2016,04,20,01,09,12.10
2016,04,20,01,10,12.10
2016,04,20,01,11,12.10
2016,04,20,01,12,12.10
2016,04,20,01,13,12.10
2016,04,20,01,14,12.10
2016,04,20,01,15,12.10
2016,04,20,01,16,12.10
2016,04,20,01,17,12.10
2016,04,20,01,18,12.10
2016,04,20,01,19,12.10
2016,04,20,01,20,12.10
2016,04,20,01,21,12.20
2016,04,20,01,22,12.20
2016,04,20,01,23,12.20
2016,04,20,01,24,12.20
2016,04,20,01,25,12.20
2016,04,20,01,26,12.20
2016,04,20,01,27,12.20
2016,04,20,01,28,12.20
2016,04,20,01,29,12.20
2016,04,20,01,30,12.20
2016,04,20,01,31,12.20
2016,04,20,01,32,12.20
2016,04,20,01,33,12.20
2016,04,20,01,34,12.20
2016,04,20,01,35,12.10
2016,04,20,01,36,12.10
2016,04,20,01,37,12.10
2016,04,20,01,38,12.10
2016,04,20,01,39,12.10
2016,04,20,01,40,12.10
2016,04,20,01,41,12.10
2016,04,20,01,42,12.00
2016,04,20,01,43,12.00
2016,04,20,01,44,12.00
2016,04,20,01,45,12.00
2016,04,20,01,46,12.00
2016,04,20,01,47,12.00
2016,04,20,01,48,12.00
2016,04,20,01,49,12.00
2016,04,20,01,50,11.90
2016,04,20,01,51,11.90
2016,04,20,01,52,11.90
2016,04,20,01,53,11.90
2016,04,20,01,54,11.90
2016,04,20,01,55,11.90
2016,04,20,01,56,11.90
2016,04,20,01,57,11.90
2016,04,20,01,58,11.90
2016,04,20,01,59,11.90
2016,04,20,02,00,11.90
2016,04,20,02,01,11.90
2016,04,20,02,02,11.90
2016,04,20,02,03,11.90
2016,04,20,02,04,11.90
2016,04,20,02,05,11.90
2016,04,20,02,06,11.90
2016,04,20,02,07,11.90
2016,04,20,02,08,11.90
2016,04,20,02,09,11.80
2016,04,20,02,10,11.80
2016,04,20,02,11,11.80
2016,04,20,02,12,11.80
2016,04,20,02,13,11.80
2016,04,20,02,14,11.80
2016,04,20,02,15,11.80
2016,04,20,02,16,11.80
2016,04,20,02,17,11.80
2016,04,20,02,18,11.80
2016,04,20,02,19,11.80
2016,04,20,02,20,11.80
2016,04,20,02,21,11.80
2016,04,20,02,22,11.80
2016,04,20,02,23,11.80
2016,04,20,02,24,11.80
2016,04,20,02,25,11.80
2016,04,20,02,26,11.80
2016,04,20,02,27,11.80
2016,04,20,02,28,11.80
2016,04,20,02,29,11.80
2016,04,20,02,30,11.80
2016,04,20,02,31,11.80
2016,04,20,02,32,11.80
2016,04,20,02,33,11.80
2016,04,20,02,34,11.80
2016,04,20,02,35,11.80
2016,04,20,02,36,11.80
2016,04,20,02,37,11.80
2016,04,20,02,38,11.80
2016,04,20,02,39,11.80
2016,04,20,02,40,11.80
2016,04,20,02,41,11.80
2016,04,20,02,42,11.80
2016,04,20,02,43,11.90
2016,04,20,02,44,11.90
2016,04,20,02,45,11.90
2016,04,20,02,46,11.80
2016,04,20,02,47,11.80
2016,04,20,02,48,11.80
2016,04,20,02,49,11.80
2016,04,20,02,50,11.80
2016,04,20,02,51,11.80
2016,04,20,02,52,11.80
2016,04,20,02,53,11.80
2016,04,20,02,54,11.80
2016,04,20,02,55,11.80
2016,04,20,02,56,11.80
2016,04,20,02,57,11.80
2016,04,20,02,58,11.80
2016,04,20,02,59,11.70
2016,04,20,03,00,11.70
2016,04,20,03,01,11.70
2016,04,20,03,02,11.70
2016,04,20,03,03,11.70
2016,04,20,03,04,11.70
2016,04,20,03,05,11.70
2016,04,20,03,06,11.70
2016,04,20,03,07,11.70
2016,04,20,03,08,11.70
2016,04,20,03,09,11.70
2016,04,20,03,10,11.70
2016,04,20,03,11,11.60
2016,04,20,03,12,11.60
2016,04,20,03,13,11.60
2016,04,20,03,14,11.60
2016,04,20,03,15,11.60
2016,04,20,03,16,11.60
2016,04,20,03,17,11.60
2016,04,20,03,18,11.60
2016,04,20,03,19,11.60
2016,04,20,03,20,11.60
2016,04,20,03,21,11.60
2016,04,20,03,22,11.60
2016,04,20,03,23,11.60
2016,04,20,03,24,11.60
2016,04,20,03,25,11.60
2016,04,20,03,26,11.60
2016,04,20,03,27,11.60
2016,04,20,03,28,11.70
2016,04,20,03,29,11.70
2016,04,20,03,30,11.70
2016,04,20,03,31,11.70
2016,04,20,03,32,11.70
2016,04,20,03,33,11.70
2016,04,20,03,34,11.70
2016,04,20,03,35,11.70
2016,04,20,03,36,11.70
2016,04,20,03,37,11.70
2016,04,20,03,38,11.70
2016,04,20,03,39,11.60
2016,04,20,03,40,11.60
2016,04,20,03,41,11.60
2016,04,20,03,42,11.60
2016,04,20,03,43,11.70
2016,04,20,03,44,11.70
2016,04,20,03,49,11.70
2016,04,20,03,50,11.60
2016,04,20,03,51,11.60
2016,04,20,03,52,11.60
2016,04,20,03,53,11.60
2016,04,20,03,54,11.60
2016,04,20,03,55,11.50
2016,04,20,03,56,11.50
2016,04,20,03,57,11.50
2016,04,20,03,58,11.50
2016,04,20,03,59,11.40
2016,04,20,04,00,11.40
2016,04,20,04,01,11.40
2016,04,20,04,02,11.40
2016,04,20,04,03,11.30
2016,04,20,04,04,11.30
2016,04,20,04,05,11.30
2016,04,20,04,06,11.30
2016,04,20,04,07,11.30
2016,04,20,04,08,11.30
2016,04,20,04,09,11.20
2016,04,20,04,10,11.20
2016,04,20,04,11,11.10
2016,04,20,04,12,11.10
2016,04,20,04,13,11.00
2016,04,20,04,14,11.00
2016,04,20,04,15,10.90
2016,04,20,04,16,10.90
2016,04,20,04,17,10.90
2016,04,20,04,18,11.00
2016,04,20,04,19,11.00
2016,04,20,04,20,11.00
2016,04,20,04,21,11.00
2016,04,20,04,22,11.00
2016,04,20,04,23,11.00
2016,04,20,04,24,11.00
2016,04,20,04,25,11.00
2016,04,20,04,26,11.00
2016,04,20,04,27,11.00
2016,04,20,04,28,11.00
2016,04,20,04,29,10.90
2016,04,20,04,30,10.90
2016,04,20,04,31,10.90
2016,04,20,04,32,10.90
2016,04,20,04,33,10.80
2016,04,20,04,34,10.80
2016,04,20,04,35,10.80
2016,04,20,04,36,10.80
2016,04,20,04,37,10.80
2016,04,20,04,38,10.70
2016,04,20,04,39,10.70
2016,04,20,04,40,10.70
2016,04,20,04,41,10.70
2016,04,20,04,42,10.70
2016,04,20,04,43,10.60
2016,04,20,04,44,10.60
2016,04,20,04,45,10.60
2016,04,20,04,46,10.60
2016,04,20,04,47,10.50
2016,04,20,04,48,10.50
2016,04,20,04,49,10.50
2016,04,20,04,50,10.50
2016,04,20,04,51,10.40
2016,04,20,04,52,10.40
2016,04,20,04,53,10.40
2016,04,20,04,54,10.40
2016,04,20,04,55,10.40
2016,04,20,04,56,10.40
2016,04,20,04,57,10.40
2016,04,20,04,58,10.40
2016,04,20,04,59,10.40
2016,04,20,05,00,10.40
2016,04,20,05,01,10.40
2016,04,20,05,02,10.40
2016,04,20,05,03,10.40
2016,04,20,05,04,10.40
2016,04,20,05,05,10.40
2016,04,20,05,06,10.40
2016,04,20,05,07,10.40
2016,04,20,05,08,10.40
2016,04,20,05,09,10.40
2016,04,20,05,10,10.40
2016,04,20,05,11,10.40
2016,04,20,05,12,10.40
2016,04,20,05,13,10.40
2016,04,20,05,14,10.40
2016,04,20,05,15,10.30
2016,04,20,05,16,10.30
2016,04,20,05,17,10.30
2016,04,20,05,18,10.30
2016,04,20,05,19,10.30
2016,04,20,05,20,10.30
2016,04,20,05,21,10.30
2016,04,20,05,22,10.30
2016,04,20,05,23,10.40
2016,04,20,05,24,10.40
2016,04,20,05,25,10.40
2016,04,20,05,26,10.40
2016,04,20,05,27,10.40
2016,04,20,05,28,10.40
2016,04,20,05,29,10.40
2016,04,20,05,30,10.40
2016,04,20,05,31,10.40
2016,04,20,05,32,10.40
2016,04,20,05,33,10.40
2016,04,20,05,34,10.40
2016,04,20,05,35,10.40
2016,04,20,05,36,10.40
2016,04,20,05,37,10.40
2016,04,20,05,38,10.40
2016,04,20,05,39,10.40
2016,04,20,05,40,10.30
2016,04,20,05,41,10.30
2016,04,20,05,42,10.30
2016,04,20,05,43,10.30
2016,04,20,05,44,10.30
2016,04,20,05,45,10.30
2016,04,20,05,46,10.30
2016,04,20,05,47,10.30
2016,04,20,05,48,10.20
2016,04,20,05,49,10.20
2016,04,20,05,50,10.20
2016,04,20,05,51,10.20
2016,04,20,05,52,10.20
2016,04,20,05,53,10.20
2016,04,20,05,54,10.20
2016,04,20,05,55,10.10
2016,04,20,05,56,10.10
2016,04,20,05,57,10.10
2016,04,20,05,58,10.10
2016,04,20,05,59,10.10
2016,04,20,06,00,10.10
2016,04,20,06,01,10.10
2016,04,20,06,02,10.00
2016,04,20,06,03,10.00
2016,04,20,06,04,10.00
2016,04,20,06,05,10.00
2016,04,20,06,06,10.00
2016,04,20,06,07,10.00
2016,04,20,06,08,10.00
2016,04,20,06,09,10.00
2016,04,20,06,10,10.00
2016,04,20,06,11,10.00
2016,04,20,06,12,10.00
2016,04,20,06,13,10.00
2016,04,20,06,14,10.00
2016,04,20,06,15,9.90
2016,04,20,06,16,9.90
2016,04,20,06,17,9.90
2016,04,20,06,18,10.00
2016,04,20,06,19,10.00
2016,04,20,06,20,10.00
2016,04,20,06,21,9.90
2016,04,20,06,22,10.00
2016,04,20,06,23,9.90
2016,04,20,06,24,10.00
2016,04,20,06,25,10.00
2016,04,20,06,26,10.00
2016,04,20,06,27,10.00
2016,04,20,06,28,10.00
2016,04,20,06,29,10.00
2016,04,20,06,30,10.00
2016,04,20,06,31,10.00
2016,04,20,06,32,10.10
2016,04,20,06,33,10.10
2016,04,20,06,34,10.10
2016,04,20,06,35,10.10
2016,04,20,06,36,10.10
2016,04,20,06,37,10.10
2016,04,20,06,38,10.10
2016,04,20,06,39,10.10
2016,04,20,06,40,10.20
2016,04,20,06,41,10.20
2016,04,20,06,42,10.20
2016,04,20,06,43,10.20
2016,04,20,06,44,10.20
2016,04,20,06,45,10.20
2016,04,20,06,46,10.20
2016,04,20,06,47,10.30
2016,04,20,06,48,10.30
2016,04,20,06,49,10.30
2016,04,20,06,50,10.30
2016,04,20,06,51,10.30
2016,04,20,06,52,10.30
2016,04,20,06,53,10.30
2016,04,20,06,54,10.40
2016,04,20,06,55,10.40
2016,04,20,06,56,10.40
2016,04,20,06,57,10.40
2016,04,20,06,58,10.50
2016,04,20,06,59,10.50
2016,04,20,07,00,10.50
2016,04,20,07,01,10.50
2016,04,20,07,02,10.60
2016,04,20,07,03,10.60
2016,04,20,07,04,10.60
2016,04,20,07,05,10.70
2016,04,20,07,06,10.70
2016,04,20,07,07,10.70
2016,04,20,07,08,10.70
2016,04,20,07,09,10.70
2016,04,20,07,10,10.80
2016,04,20,07,11,10.80
2016,04,20,07,12,10.80
2016,04,20,07,13,10.80
2016,04,20,07,14,10.80
2016,04,20,07,15,10.90
2016,04,20,07,16,10.90
2016,04,20,07,17,10.90
2016,04,20,07,18,11.00
2016,04,20,07,19,11.00
2016,04,20,07,20,11.10
2016,04,20,07,21,11.10
2016,04,20,07,22,11.10
2016,04,20,07,23,11.20
2016,04,20,07,24,11.20
2016,04,20,07,25,11.20
2016,04,20,07,26,11.20
2016,04,20,07,27,11.30
2016,04,20,07,28,11.30
2016,04,20,07,29,11.30
2016,04,20,07,30,11.40
2016,04,20,07,31,11.40
2016,04,20,07,32,11.50
2016,04,20,07,33,11.60
2016,04,20,07,34,11.60
2016,04,20,07,35,11.70
2016,04,20,07,36,11.70
2016,04,20,07,37,11.70
2016,04,20,07,38,11.80
2016,04,20,07,39,11.80
2016,04,20,07,40,11.90
2016,04,20,07,41,11.90
2016,04,20,07,42,12.00
2016,04,20,07,43,12.10
2016,04,20,07,44,12.10
2016,04,20,07,45,12.20
2016,04,20,07,46,12.20
2016,04,20,07,47,12.30
2016,04,20,07,48,12.30
2016,04,20,07,49,12.40
2016,04,20,07,50,12.40
2016,04,20,07,51,12.50
2016,04,20,07,52,12.60
2016,04,20,07,53,12.60
2016,04,20,07,54,12.70
2016,04,20,07,55,12.80
2016,04,20,07,56,12.90
2016,04,20,07,57,13.00
2016,04,20,07,58,13.10
2016,04,20,07,59,13.10
2016,04,20,08,00,13.20
2016,04,20,08,01,13.30
2016,04,20,08,02,13.40
2016,04,20,08,03,13.50
2016,04,20,08,04,13.60
2016,04,20,08,05,13.70
2016,04,20,08,06,13.70
2016,04,20,08,07,13.80
2016,04,20,08,08,13.90
2016,04,20,08,09,14.00
2016,04,20,08,10,14.00
2016,04,20,08,11,14.10
2016,04,20,08,12,14.20
2016,04,20,08,13,14.20
2016,04,20,08,14,14.30
2016,04,20,08,15,14.40
2016,04,20,08,16,14.60
2016,04,20,08,17,14.70
2016,04,20,08,18,14.80
2016,04,20,08,19,15.00
2016,04,20,08,20,15.00
2016,04,20,08,21,15.20
2016,04,20,08,22,15.30
2016,04,20,08,23,15.50
2016,04,20,08,24,15.60
2016,04,20,08,25,15.70
2016,04,20,08,26,15.80
2016,04,20,08,27,15.90
2016,04,20,08,28,16.00
2016,04,20,08,29,16.10
2016,04,20,08,30,16.20
2016,04,20,08,31,16.30
2016,04,20,08,32,16.40
2016,04,20,08,33,16.50
2016,04,20,08,34,16.60
2016,04,20,08,35,16.70
2016,04,20,08,36,16.70
2016,04,20,08,37,16.80
2016,04,20,08,38,17.00
2016,04,20,08,39,17.10
2016,04,20,08,40,17.20
2016,04,20,08,41,17.30
2016,04,20,08,42,17.40
2016,04,20,08,43,17.60
2016,04,20,08,44,17.70
2016,04,20,08,45,17.90
2016,04,20,08,46,18.00
2016,04,20,08,47,18.10
2016,04,20,08,48,18.10
2016,04,20,08,49,18.20
2016,04,20,08,50,18.20
2016,04,20,08,51,18.30
2016,04,20,08,52,18.30
2016,04,20,08,53,18.40
2016,04,20,08,54,18.40
2016,04,20,08,55,18.50
2016,04,20,08,56,18.60
2016,04,20,08,57,18.60
2016,04,20,08,58,18.60
2016,04,20,08,59,18.70
2016,04,20,09,00,18.80
2016,04,20,09,01,18.90
2016,04,20,09,02,18.90
2016,04,20,09,03,18.90
2016,04,20,09,04,19.00
2016,04,20,09,05,19.00
2016,04,20,09,06,19.10
2016,04,20,09,07,19.20
2016,04,20,09,08,19.20
2016,04,20,09,09,19.30
2016,04,20,09,10,19.40
2016,04,20,09,11,19.40
2016,04,20,09,12,19.50
2016,04,20,09,13,19.60
2016,04,20,09,14,19.70
2016,04,20,09,15,19.60
2016,04,20,09,16,19.60
2016,04,20,09,17,19.60
2016,04,20,09,18,19.60
2016,04,20,09,19,19.60
2016,04,20,09,20,19.60
2016,04,20,09,21,19.70
2016,04,20,09,22,19.70
2016,04,20,09,23,19.80
2016,04,20,09,24,19.80
2016,04,20,09,25,19.90
2016,04,20,09,26,19.90
2016,04,20,09,27,19.90
2016,04,20,09,28,19.90
2016,04,20,09,29,20.00
2016,04,20,09,30,20.00
2016,04,20,09,31,20.00
2016,04,20,09,32,20.00
2016,04,20,09,33,20.00
2016,04,20,09,34,20.00
2016,04,20,09,35,20.10
2016,04,20,09,36,20.10
2016,04,20,09,37,20.10
2016,04,20,09,38,20.20
2016,04,20,09,39,20.30
2016,04,20,09,40,20.30
2016,04,20,09,41,20.40
2016,04,20,09,42,20.40
2016,04,20,09,43,20.50
2016,04,20,09,44,20.60
2016,04,20,09,45,20.70
2016,04,20,09,46,20.80
2016,04,20,09,47,21.00
2016,04,20,09,48,21.10
2016,04,20,09,49,21.20
2016,04,20,09,50,21.20
2016,04,20,09,51,21.30
2016,04,20,09,52,21.40
2016,04,20,09,53,21.40
2016,04,20,09,54,21.40
2016,04,20,09,55,21.50
2016,04,20,09,56,21.50
2016,04,20,09,57,21.50
2016,04,20,09,58,21.50
2016,04,20,09,59,21.50
2016,04,20,10,00,21.60
2016,04,20,10,01,21.60
2016,04,20,10,02,21.60
2016,04,20,10,03,21.60
2016,04,20,10,04,21.70
2016,04,20,10,05,21.70
2016,04,20,10,06,21.70
2016,04,20,10,07,21.70
2016,04,20,10,08,21.80
2016,04,20,10,09,21.80
2016,04,20,10,10,21.90
2016,04,20,10,11,22.00
2016,04,20,10,12,22.00
2016,04,20,10,13,22.00
2016,04,20,10,14,22.00
2016,04,20,10,15,21.90
2016,04,20,10,16,21.90
2016,04,20,10,17,22.00
2016,04,20,10,18,22.10
2016,04,20,10,19,22.20
2016,04,20,10,20,22.30
2016,04,20,10,21,22.40
2016,04,20,10,22,22.40
2016,04,20,10,23,22.40
2016,04,20,10,24,22.40
2016,04,20,10,25,22.40
2016,04,20,10,26,22.40
2016,04,20,10,27,22.40
2016,04,20,10,28,22.40
2016,04,20,10,29,22.40
2016,04,20,10,30,22.50
2016,04,20,10,31,22.50
2016,04,20,10,32,22.50
2016,04,20,10,33,22.50
2016,04,20,10,34,22.50
2016,04,20,10,35,22.60
2016,04,20,10,36,22.70
2016,04,20,10,37,22.70
2016,04,20,10,38,22.80
2016,04,20,10,39,22.90
2016,04,20,10,40,22.90
2016,04,20,10,41,23.00
2016,04,20,10,42,23.10
2016,04,20,10,43,23.10
2016,04,20,10,44,23.20
2016,04,20,10,45,23.20
2016,04,20,10,46,23.10
2016,04,20,10,47,23.00
2016,04,20,10,48,22.90
2016,04,20,10,49,22.90
2016,04,20,10,50,22.80
2016,04,20,10,51,22.80
2016,04,20,10,52,22.70
2016,04,20,10,53,22.70
2016,04,20,10,54,22.70
2016,04,20,10,55,22.70
2016,04,20,10,56,22.80
2016,04,20,10,57,22.90
2016,04,20,10,58,23.00
2016,04,20,10,59,23.10
2016,04,20,11,00,23.10
2016,04,20,11,01,23.10
2016,04,20,11,02,23.00
2016,04,20,11,03,22.90
2016,04,20,11,04,22.90
2016,04,20,11,05,22.80
2016,04,20,11,06,22.90
2016,04,20,11,07,22.90
2016,04,20,11,08,22.90
2016,04,20,11,09,22.90
2016,04,20,11,10,22.90
2016,04,20,11,11,22.90
2016,04,20,11,12,22.90
2016,04,20,11,13,22.90
2016,04,20,11,14,22.90
2016,04,20,11,15,22.80
2016,04,20,11,16,22.80
2016,04,20,11,17,22.80
2016,04,20,11,18,22.80
2016,04,20,11,19,22.70
2016,04,20,11,20,22.70
2016,04,20,11,21,22.70
2016,04,20,11,22,22.70
2016,04,20,11,23,22.70
2016,04,20,11,24,22.70
2016,04,20,11,25,22.70
2016,04,20,11,26,22.70
2016,04,20,11,27,22.70
2016,04,20,11,28,22.60
2016,04,20,11,29,22.50
2016,04,20,11,30,22.50
2016,04,20,11,31,22.60
2016,04,20,11,32,22.60
2016,04,20,11,33,22.60
2016,04,20,11,34,22.60
2016,04,20,11,35,22.70
2016,04,20,11,36,22.80
2016,04,20,11,37,22.90
2016,04,20,11,38,23.00
2016,04,20,11,39,23.00
2016,04,20,11,40,23.10
2016,04,20,11,41,23.00
2016,04,20,11,42,23.00
2016,04,20,11,43,22.90
2016,04,20,11,44,22.90
2016,04,20,11,45,23.00
2016,04,20,11,46,23.00
2016,04,20,11,47,23.10
2016,04,20,11,48,23.10
2016,04,20,11,49,23.10
2016,04,20,11,50,23.10
2016,04,20,11,51,23.20
2016,04,20,11,52,23.20
2016,04,20,11,53,23.20
2016,04,20,11,54,23.20
2016,04,20,11,55,23.30
2016,04,20,11,56,23.30
2016,04,20,11,57,23.40
2016,04,20,11,58,23.50
2016,04,20,11,59,23.60
2016,04,20,12,00,23.50
2016,04,20,12,01,23.40
2016,04,20,12,02,23.40
2016,04,20,12,03,23.40
2016,04,20,12,04,23.30
2016,04,20,12,05,23.30
2016,04,20,12,06,23.30
2016,04,20,12,07,23.30
2016,04,20,12,08,23.40
2016,04,20,12,09,23.40
2016,04,20,12,10,23.40
2016,04,20,12,11,23.50
2016,04,20,12,12,23.60
2016,04,20,12,13,23.60
2016,04,20,12,14,23.60
2016,04,20,12,15,23.60
2016,04,20,12,16,23.60
2016,04,20,12,17,23.50
2016,04,20,12,18,23.50
2016,04,20,12,19,23.60
2016,04,20,12,20,23.60
2016,04,20,12,21,23.70
2016,04,20,12,22,23.70
2016,04,20,12,23,23.70
2016,04,20,12,24,23.70
2016,04,20,12,25,23.70
2016,04,20,12,26,23.80
2016,04,20,12,27,23.80
2016,04,20,12,28,23.80
2016,04,20,12,29,23.90
2016,04,20,12,30,23.90
2016,04,20,12,31,23.90
2016,04,20,12,32,23.90
2016,04,20,12,33,24.00
2016,04,20,12,34,24.10
2016,04,20,12,35,24.20
2016,04,20,12,36,24.20
2016,04,20,12,37,24.20
2016,04,20,12,38,24.20
2016,04,20,12,39,24.20
2016,04,20,12,40,24.10
2016,04,20,12,41,24.10
2016,04,20,12,42,24.00
2016,04,20,12,43,23.90
2016,04,20,12,44,24.00
2016,04,20,12,45,23.90
2016,04,20,12,46,23.90
2016,04,20,12,47,23.90
2016,04,20,12,48,23.90
2016,04,20,12,49,23.80
2016,04,20,12,50,23.80
2016,04,20,12,51,23.70
2016,04,20,12,52,23.60
2016,04,20,12,53,23.70
2016,04,20,12,54,23.70
2016,04,20,12,55,23.80
2016,04,20,12,56,24.00
2016,04,20,12,57,24.10
2016,04,20,12,58,24.20
2016,04,20,12,59,24.20
2016,04,20,13,00,24.20
2016,04,20,13,01,24.20
2016,04,20,13,02,24.20
2016,04,20,13,03,24.10
2016,04,20,13,04,24.10
2016,04,20,13,05,24.10
2016,04,20,13,06,24.10
2016,04,20,13,07,24.10
2016,04,20,13,08,24.10
2016,04,20,13,09,24.20
2016,04,20,13,10,24.20
2016,04,20,13,11,24.10
2016,04,20,13,12,24.10
2016,04,20,13,13,24.10
2016,04,20,13,14,24.20
2016,04,20,13,15,24.20
2016,04,20,13,16,24.30
2016,04,20,13,17,24.30
2016,04,20,13,18,24.30
2016,04,20,13,19,24.30
2016,04,20,13,20,24.30
2016,04,20,13,21,24.30
2016,04,20,13,22,24.40
2016,04,20,13,23,24.40
2016,04,20,13,24,24.50
2016,04,20,13,25,24.50
2016,04,20,13,26,24.50
2016,04,20,13,27,24.50
2016,04,20,13,28,24.60
2016,04,20,13,29,24.60
2016,04,20,13,30,24.60
2016,04,20,13,31,24.60
2016,04,20,13,32,24.60
2016,04,20,13,33,24.60
2016,04,20,13,34,24.60
2016,04,20,13,35,24.60
2016,04,20,13,36,24.60
2016,04,20,13,37,24.60
2016,04,20,13,38,24.60
2016,04,20,13,39,24.60
2016,04,20,13,40,24.60
2016,04,20,13,41,24.50
2016,04,20,13,42,24.50
2016,04,20,13,43,24.40
2016,04,20,13,44,24.40
2016,04,20,13,45,24.40
2016,04,20,13,46,24.50
2016,04,20,13,47,24.60
2016,04,20,13,48,24.70
2016,04,20,13,49,24.70
2016,04,20,13,50,24.80
2016,04,20,13,51,24.90
2016,04,20,13,52,24.90
2016,04,20,13,53,24.90
2016,04,20,13,54,24.80
2016,04,20,13,55,24.80
2016,04,20,13,56,24.80
2016,04,20,13,57,24.80
2016,04,20,13,58,24.80
2016,04,20,13,59,24.90
2016,04,20,14,00,24.90
2016,04,20,14,01,24.90
2016,04,20,14,02,25.00
2016,04,20,14,03,25.00
2016,04,20,14,04,25.00
2016,04,20,14,05,25.00
2016,04,20,14,06,24.90
2016,04,20,14,07,24.80
2016,04,20,14,08,24.80
2016,04,20,14,09,24.80
2016,04,20,14,10,24.80
2016,04,20,14,11,24.80
2016,04,20,14,12,24.90
2016,04,20,14,13,24.90
2016,04,20,14,14,24.90
2016,04,20,14,15,24.90
2016,04,20,14,16,24.90
2016,04,20,14,17,24.90
2016,04,20,14,18,24.90
2016,04,20,14,19,25.00
2016,04,20,14,20,25.10
2016,04,20,14,21,25.10
2016,04,20,14,22,25.10
2016,04,20,14,23,25.20
2016,04,20,14,24,25.10
2016,04,20,14,25,25.20
2016,04,20,14,26,25.20
2016,04,20,14,27,25.30
2016,04,20,14,28,25.30
2016,04,20,14,29,25.30
2016,04,20,14,30,25.30
2016,04,20,14,31,25.40
2016,04,20,14,32,25.50
2016,04,20,14,33,25.50
2016,04,20,14,34,25.50
2016,04,20,14,35,25.60
2016,04,20,14,36,25.60
2016,04,20,14,37,25.60
2016,04,20,14,38,25.60
2016,04,20,14,39,25.70
2016,04,20,14,40,25.70
2016,04,20,14,41,25.80
2016,04,20,14,42,25.90
2016,04,20,14,43,25.90
2016,04,20,14,44,25.90
2016,04,20,14,45,25.90
2016,04,20,14,46,25.90
2016,04,20,14,47,25.90
2016,04,20,14,48,25.90
2016,04,20,14,49,25.90
2016,04,20,14,50,25.90
2016,04,20,14,51,25.80
2016,04,20,14,52,25.80
2016,04,20,14,53,25.70
2016,04,20,14,54,25.70
2016,04,20,14,55,25.70
2016,04,20,14,56,25.80
2016,04,20,14,57,25.80
2016,04,20,14,58,25.90
2016,04,20,14,59,25.90
2016,04,20,15,00,26.00
2016,04,20,15,01,26.10
2016,04,20,15,02,26.20
2016,04,20,15,03,26.20
2016,04,20,15,04,26.30
2016,04,20,15,05,26.30
2016,04,20,15,06,26.30
2016,04,20,15,07,26.30
2016,04,20,15,08,26.20
2016,04,20,15,09,26.10
2016,04,20,15,10,26.00
2016,04,20,15,11,26.00
2016,04,20,15,12,26.00
2016,04,20,15,13,26.00
2016,04,20,15,14,26.00
2016,04,20,15,15,26.10
2016,04,20,15,16,26.20
2016,04,20,15,17,26.20
2016,04,20,15,18,26.20
2016,04,20,15,19,26.30
2016,04,20,15,20,26.30
2016,04,20,15,21,26.40
2016,04,20,15,22,26.40
2016,04,20,15,23,26.50
2016,04,20,15,24,26.50
2016,04,20,15,25,26.50
2016,04,20,15,26,26.50
2016,04,20,15,27,26.60
2016,04,20,15,28,26.60
2016,04,20,15,29,26.60
2016,04,20,15,30,26.60
2016,04,20,15,31,26.60
2016,04,20,15,32,26.60
2016,04,20,15,33,26.60
2016,04,20,15,34,26.60
2016,04,20,15,35,26.60
2016,04,20,15,36,26.60
2016,04,20,15,37,26.60
2016,04,20,15,38,26.60
2016,04,20,15,39,26.50
2016,04,20,15,40,26.50
2016,04,20,15,41,26.40
2016,04,20,15,42,26.40
2016,04,20,15,43,26.40
2016,04,20,15,44,26.40
2016,04,20,15,45,26.40
2016,04,20,15,46,26.40
2016,04,20,15,47,26.40
2016,04,20,15,48,26.50
2016,04,20,15,49,26.50
2016,04,20,15,50,26.60
2016,04,20,15,51,26.60
2016,04,20,15,52,26.60
2016,04,20,15,53,26.70
2016,04,20,15,54,26.70
2016,04,20,15,55,26.70
2016,04,20,15,56,26.70
2016,04,20,15,57,26.80
2016,04,20,15,58,26.80
2016,04,20,15,59,26.70
2016,04,20,16,00,26.70
2016,04,20,16,01,26.70
2016,04,20,16,02,26.70
2016,04,20,16,03,26.70
2016,04,20,16,04,26.70
2016,04,20,16,05,26.60
2016,04,20,16,06,26.60
2016,04,20,16,07,26.60
2016,04,20,16,08,26.70
2016,04,20,16,09,26.70
2016,04,20,16,10,26.70
2016,04,20,16,11,26.60
2016,04,20,16,12,26.60
2016,04,20,16,13,26.60
2016,04,20,16,14,26.60
2016,04,20,16,15,26.60
2016,04,20,16,16,26.60
2016,04,20,16,17,26.60
2016,04,20,16,18,26.50
2016,04,20,16,19,26.50
2016,04,20,16,20,26.50
2016,04,20,16,21,26.40
2016,04,20,16,22,26.40
2016,04,20,16,23,26.40
2016,04,20,16,24,26.50
2016,04,20,16,25,26.50
2016,04,20,16,26,26.60
2016,04,20,16,27,26.60
2016,04,20,16,28,26.60
2016,04,20,16,29,26.60
2016,04,20,16,30,26.60
2016,04,20,16,31,26.60
2016,04,20,16,32,26.60
2016,04,20,16,33,26.60
2016,04,20,16,34,26.60
2016,04,20,16,35,26.70
2016,04,20,16,36,26.60
2016,04,20,16,37,26.60
2016,04,20,16,38,26.50
2016,04,20,16,39,26.50
2016,04,20,16,40,26.50
2016,04,20,16,41,26.40
2016,04,20,16,42,26.40
2016,04,20,16,43,26.40
2016,04,20,16,44,26.40
2016,04,20,16,45,26.40
2016,04,20,16,46,26.50
2016,04,20,16,47,26.50
2016,04,20,16,48,26.60
2016,04,20,16,49,26.60
2016,04,20,16,50,26.50
2016,04,20,16,51,26.50
2016,04,20,16,52,26.50
2016,04,20,16,53,26.50
2016,04,20,16,54,26.40
2016,04,20,16,55,26.50
2016,04,20,16,56,26.50
2016,04,20,16,57,26.50
2016,04,20,16,58,26.60
2016,04,20,16,59,26.60
2016,04,20,17,00,26.70
2016,04,20,17,01,26.70
2016,04,20,17,02,26.70
2016,04,20,17,03,26.80
2016,04,20,17,04,26.80
2016,04,20,17,05,26.80
2016,04,20,17,06,26.80
2016,04,20,17,07,26.80
2016,04,20,17,08,26.80
2016,04,20,17,09,26.80
2016,04,20,17,10,26.70
2016,04,20,17,11,26.60
2016,04,20,17,12,26.60
2016,04,20,17,13,26.60
2016,04,20,17,14,26.60
2016,04,20,17,15,26.50
2016,04,20,17,16,26.50
2016,04,20,17,17,26.50
2016,04,20,17,18,26.40
2016,04,20,17,19,26.40
2016,04,20,17,20,26.30
2016,04,20,17,21,26.30
2016,04,20,17,22,26.30
2016,04,20,17,23,26.20